Regional Weather Roundup
Issued by NWS Upton, NY

Current Version | Previous Version | Graphics & Text | Print | Product List | Glossary Off
Versions: 1 2 3 4 5 6 7 8 9 10 11 12 13 14 15 16 17 18 19 20 21 22 23 24 25 26 27 28 29 30 31 32 33 34 35 36 37 38 39 40 41 42 43 44 45 46 47 48 49 50

000
ASUS41 KOKX 160205
RWROKX
REGIONAL WEATHER ROUNDUP
NATIONAL WEATHER SERVICE NEW YORK NY
1000 PM EDT MON SEP 15 2014

NOTE: "FAIR" INDICATES FEW OR NO CLOUDS BELOW 12,000 FEET WITH NO
SIGNIFICANT WEATHER AND/OR OBSTRUCTIONS TO VISIBILITY.

NYZ071-072-176-178-NJZ106-104-160300-
NEW YORK CITY METRO AREA


CITY           SKY/WX    TMP DP  RH WIND       PRES   REMARKS
CENTRAL PARK   MOCLDY    64  50  60 VRB3      30.11F
LAGUARDIA APRT MOCLDY    65  51  60 S9        30.09F
KENNEDY INTL   MOCLDY    65  52  62 S9        30.11S
NEWARK/LIBERTY MOCLDY    63  51  65 S8        30.09F
BRNX BOT. GARD   N/A     63  50  63 SW5       30.09F
TETERBORO      MOCLDY    63  50  62 S6        30.08F
$$

NYZ177-179-078>081-160300-
LONG ISLAND NEW YORK

CITY           SKY/WX    TMP DP  RH WIND       PRES   REMARKS
FARMINGDALE    PTCLDY    62  50  64 S5        30.10F
ISLIP          MOCLDY    61  50  67 SE3       30.09F
SHIRLEY        PTCLDY    53  48  83 CALM      30.11F
WESTHAMPTON    PTCLDY    49  43  80 CALM      30.13F
MONTAUK POINT    N/A     59  51  75 CALM      30.13F
$$

NYZ052-065-067-160300-
HUDSON VALLEY

CITY           SKY/WX    TMP DP  RH WIND       PRES   REMARKS
WHITE PLAINS   MOCLDY    58  49  72 CALM      30.09F
NEWBURGH       CLEAR     59  50  72 CALM      30.10S
MONTGOMERY     MOCLDY    53  49  86 CALM      30.09S
POUGHKEEPSIE   MOCLDY    54  49  83 CALM      30.09R
ALBANY         CLOUDY    56  46  69 CALM      30.09F
$$

NJZ001-105-106-008-010-013-015-019>022-104-160300-
NEW JERSEY

CITY           SKY/WX    TMP DP  RH WIND       PRES   REMARKS
NEWARK/LIBERTY MOCLDY    63  51  65 S8        30.09F
TETERBORO      MOCLDY    63  50  62 S6        30.08F
CALDWELL       MOCLDY    61  48  62 CALM      30.10S
MORRISTOWN     CLEAR     52  50  93 CALM      30.10S
SOMERVILLE     PTCLDY    54  49  83 CALM      30.08F
LINDEN         FAIR      66  54  63 CALM      30.11F
SUSSEX         PTCLDY    54  50  86 CALM      30.10R
ANDOVER          N/A     51  49  92 CALM      30.10S
TRENTON        PTCLDY    60  51  72 S7        30.09F
MILLVILLE      PTCLDY    55  52  89 CALM      30.11F
ATLANTIC CITY  PTCLDY    56  53  90 SE3       30.11F
WRIGHTSTOWN    PTCLDY    57  53  86 S5        30.08R
TOMS RIVER     PTCLDY    55  50  82 CALM      30.11F
BELMAR         PTCLDY    59  48  67 CALM      30.10S
$$

PAZ047>061-062-071-160300-
EASTERN PENNSYLVANIA

CITY           SKY/WX    TMP DP  RH WIND       PRES   REMARKS
PHILADELPHIA   MOCLDY    65  51  60 S6        30.09F
ALLENTOWN      PTCLDY    55  50  83 NW3       30.10S
SCRANTON       PTCLDY    54  47  77 E6        30.09F
$$

CTZ002-004>006-009-010-012-RIZ004-006-007-MAZ004-011-015-160300-
SOUTHERN NEW ENGLAND
 IN CT

CITY           SKY/WX    TMP DP  RH WIND       PRES   REMARKS
BRADLEY INTL   MOCLDY    56  47  71 CALM      30.09F
HARTFORD       MOCLDY    55  51  86 SE10      30.10F
DANBURY        CLOUDY    54  49  83 CALM      30.12S
WTRBRY/OXFORD  MOCLDY    54  45  71 E3        30.11F
BRIDGEPORT     MOCLDY    65  51  60 S7        30.10F
MERIDEN        MOCLDY    52  47  83 CALM      30.11F
NEW HAVEN      PTCLDY    58  50  75 CALM      30.10F
CHESTER        FAIR      54  48  82 CALM      30.12F
GROTON         PTCLDY    53  51  93 N3        30.11F
WILLIMANTIC    MOCLDY    52  49  89 N3        30.13F

 IN RI

CITY           SKY/WX    TMP DP  RH WIND       PRES   REMARKS
PROVIDENCE     PTCLDY    56  48  74 W6        30.13F
BLOCK ISLAND   CLEAR     57  46  67 SW5       30.12F
WESTERLY       PTCLDY    53  49  86 CALM      30.13S

 IN MA

CITY           SKY/WX    TMP DP  RH WIND       PRES   REMARKS
BOSTON         PTCLDY    57  48  72 S9        30.12F
WORCESTER      PTCLDY    52  43  71 CALM      30.13S
WESTFIELD      CLOUDY    54  49  83 CALM      30.11F
PROVINCETOWN   CLOUDY    57  46  67 SE3       30.14F
NANTUCKET      CLOUDY    59  50  72 E5        30.14S
$$

ANZ330-335-338-340-345-350-353-355-160300-
COASTAL MARINE OBSERVATIONS


STATION/POSITION TIME  SKY/WX   TEMP    WIND        PRES    VSBY  WAVE
                                AIR SEA DIR/SP/G                  HT/PER
                 (UTC)          (F)     (DEG/KT/KT) (MB)    (MI)  (FT/S)
NY HARB ENTRANCE NOT AVBL
4S FIRE IS       NOT AVBL
23SW MTP         0200                                 N/A           1/12
HUDSON CANYON    0200            65 73   20/  4/  6 1020.0          2/ 8
EXECUTION ROCKS  0200            65 72  200/ 10/ 12   N/A
WESTERN LI SOUND 0200            65     170/ 10/ 12   N/A           0
CENTRAL LI SOUND 0100            65 72  200/ 10/ 12   N/A           1
EASTERN LI SOUND 0100            65 68  210/  4/ 10   N/A
ROBBINS REEF     0200            64     180/ 14/ 16 1017.7
$$


>>>>>>>>>>>>>>>>>>>>>>>>>>>> KEY <<<<<<<<<<<<<<<<<<<<<<<<<<<
>                                                          <
>     SKY/WX - SKY CONDITION/PRESENT WEATHER               <
>     TMP    - TEMPERATURE IN FAHRENHEIT                   <
>     DP     - DEWPOINT IN FAHRENHEIT                      <
>     RH     - RELATIVE HUMIDITY IN PERCENT                <
>     WIND   - DIRECTION AND SPEED IN MPH                  <
>     PRES   - MEAN SEA LEVEL PRESSURE IN INCHES OF HG     <
>     WCI    - WIND CHILL INDEX                            <
>     VSB    - VISIBILITY IN MILES                         <
>     HX     - HEAT INDEX                                  <
>     TC     - TEMPERATURE IN CELSIUS                      <
>     VRB    - VARIABLE WIND DIRECTION                     <
>                                                          <
>>>>>>>>>>>>>>>>>>>>>>>>>>>> KEY <<<<<<<<<<<<<<<<<<<<<<<<<<<




USA.gov is the U.S. government's official web portal to all federal, state and local government web resources and services.